Temperature
19 19 19 19 19 19 19 19 19 18 18 19 19 19 19 19 19 19 18 18 18 18 18 18 18 18 18 18 18 18 17 17 17 17 17 17 17 17 17 17 16 16 16
19 19 19 19 19 19 19 19 19 19 19 19 19 19 19 19 18 18 18 18 18 18 18 18 18 18 18 18 18 18 17 17 17 17 17 17 17 17 17 17 16 16 16
19 19 19 19 19 19 19 19 19 19 19 19 19 18 18 18 18 18 18 18 18 18 18 18 18 18 18 18 18 17 17 17 17 17 17 17 17 17 17 17 17 16 16
19 19 19 19 19 19 19 19 19 19 19 19 19 19 18 18 18 18 18 18 18 18 18 18 18 18 18 18 17 17 17 17 17 17 17 17 17 17 17 17 17 17 16
19 19 19 19 19 19 19 19 19 18 19 19 19 19 19 18 18 18 18 18 18 18 18 18 18 18 18 18 17 17 17 17 17 17 17 17 17 17 17 17 16 16 16
19 19 19 19 19 19 19 19 19 19 19 19 19 19 19 19 19 18 18 18 18 18 18 18 18 18 18 18 17 17 17 17 17 17 17 17 17 17 17 17 17 16 16
19 19 19 19 19 19 19 19 19 19 19 19 19 19 19 19 19 19 19 18 18 18 18 18 18 18 17 17 17 17 17 17 17 17 17 17 17 17 17 17 17 16 16
19 19 19 19 19 19 19 19 19 19 19 19 19 18 18 19 19 19 19 18 18 18 18 18 17 17 17 17 17 17 17 17 17 17 17 17 17 17 17 17 17 16 16
19 19 19 19 19 19 19 19 19 19 18 19 19 19 19 18 18 18 19 18 18 18 18 17 17 17 17 17 17 17 17 17 17 17 17 17 17 17 16 16 16 16 16
19 19 19 19 19 19 19 19 18 18 18 18 19 19 19 19 18 18 18 18 18 18 18 18 17 17 17 17 17 17 17 17 17 17 17 16 16 16 16 16 16 16 16
19 19 19 19 19 19 19 19 18 18 18 18 18 18 18 19 19 18 18 18 18 18 18 18 17 17 17 17 17 17 17 17 17 16 16 16 16 16 16 16 16 16 16
19 19 19 19 19 19 19 19 19 18 18 18 18 18 18 18 18 18 18 18 18 18 18 17 17 17 17 17 17 17 16 16 16 16 16 16 16 16 16 16 16 16 16
19 19 19 19 19 19 19 18 18 18 18 18 18 18 18 18 18 18 18 18 17 17 17 17 17 17 17 16 16 16 16 16 16 16 16 16 16 16 16 15 15 15 15
19 19 19 19 19 19 18 18 18 18 18 18 18 18 18 18 18 18 18 17 17 17 17 17 17 16 16 16 16 16 16 16 16 15 16 15 15 15 15 15 15 15 15
19 19 19 19 19 18 18 18 18 18 18 18 18 18 17 18 18 17 17 17 17 17 16 16 16 16 16 16 16 16 16 16 15 15 15 15 15 15 15 15 15 15 15
19 19 19 18 18 18 18 18 18 18 18 18 17 17 17 17 17 17 17 17 17 17 16 16 16 16 16 16 16 16 15 15 15 15 15 15 15 15 15 15 15 15 14
19 19 18 18 18 18 18 18 18 18 17 17 17 17 17 17 17 17 17 16 16 16 16 16 16 16 15 15 15 15 15 15 15 15 15 15 15 15 14 14 14 14 14
19 18 18 18 18 18 18 17 17 17 17 17 17 17 17 16 16 16 16 16 16 16 16 15 15 15 15 15 15 15 15 15 15 15 15 15 14 14 14 14 14 14 14
18 18 18 18 17 17 17 17 17 17 17 17 16 16 16 16 16 16 16 16 16 16 16 15 15 15 15 15 15 15 14 14 15 14 14 14 14 14 14 14 14 14 14
18 18 18 17 17 17 17 17 17 16 16 16 16 16 16 16 16 15 15 15 15 15 15 15 15 15 14 14 14 14 14 14 14 14 14 14 14 14 14 14 14 14 14
18 17 17 17 17 17 17 17 16 16 16 16 16 15 15 15 15 15 15 15 15 15 15 14 14 14 14 14 14 14 14 14 14 14 14 14 14 14 14 14 14 14 14
17 17 17 17 17 16 16 16 16 16 16 15 15 15 15 15 15 15 15 15 15 14 14 14 14 14 14 14 14 14 14 14 14 14 14 14 14 14 14 14 14 14 14
17 17 17 17 17 16 16 16 16 16 15 15 15 15 15 15 15 15 15 14 14 14 14 14 14 14 14 14 13 14 13 13 14 14 13 14 14 14 14 14 14 14 14
17 17 17 17 16 16 16 16 16 16 15 15 15 15 15 15 15 15 14 14 14 14 14 14 14 14 13 13 13 13 13 13 13 13 14 13 14 14 14 14 14 14 13
17 16 16 16 16 16 16 16 16 15 15 15 15 15 15 15 14 14 14 14 14 14 14 13 13 13 13 13 13 13 13 13 13 13 13 13 13 13 13 13 14 13 13
16 16 16 16 16 16 16 15 15 15 15 15 15 14 14 14 14 14 14 14 13 13 13 13 13 13 13 13 13 13 13 13 13 13 13 13 13 13 13 13 13 13 13
Wind_Speed
2 2 1 1 1 1 1 1 1 1 2 1 2 2 1 1 3 5 6 11 11 10 10 10 10 10 10 9 9 10 10 10 11 12 12 14 13 12 12 12 11 11 10
3 2 1 1 1 1 2 2 1 1 1 2 2 2 1 1 2 5 6 9 10 10 10 10 10 10 10 9 9 10 10 10 10 11 12 13 14 13 13 12 12 11 11
3 1 1 1 1 2 2 2 1 1 2 2 2 2 1 1 2 3 4 6 7 9 10 11 11 11 10 10 10 10 9 9 10 10 11 12 13 13 13 12 12 12 11
3 1 1 2 2 1 1 1 0 1 1 0 1 2 2 2 2 3 4 4 5 6 8 11 11 11 10 10 9 9 9 9 8 8 8 9 10 10 10 10 11 11 10
3 2 1 1 2 1 1 1 1 0 1 1 2 3 3 3 3 4 4 5 5 6 6 9 11 10 10 10 10 9 9 9 9 8 8 8 8 9 11 11 10 10 9
2 1 1 1 1 1 0 1 1 1 1 1 1 1 2 2 3 3 4 4 5 6 6 7 8 9 10 10 10 10 9 9 8 8 8 8 8 9 10 11 11 11 10
2 1 0 0 0 1 0 0 0 1 1 1 0 0 2 2 3 3 3 3 3 5 5 6 7 7 6 8 10 10 10 10 9 9 9 8 8 9 10 10 11 11 11
2 1 1 0 0 1 1 0 0 1 1 0 0 1 0 0 0 2 3 3 3 4 4 4 5 6 6 6 7 10 10 9 9 8 8 8 8 8 8 9 9 9 10
2 1 1 1 0 1 1 1 1 1 1 1 1 1 1 0 1 0 1 2 2 2 2 2 3 4 4 5 5 8 9 9 8 7 7 7 7 7 7 8 7 7 7
2 2 1 1 1 0 0 1 0 1 1 2 1 1 1 0 1 0 1 1 2 2 2 1 2 3 3 5 5 6 8 9 8 7 6 6 6 6 6 6 6 6 6
3 2 2 2 1 0 0 1 1 1 1 2 2 1 1 1 2 1 1 0 1 1 1 1 2 2 3 3 5 6 7 8 8 7 6 5 6 6 5 6 6 6 5
3 3 3 2 1 0 0 0 1 1 1 2 2 2 2 2 1 1 1 1 1 1 1 2 1 2 3 3 5 6 7 7 8 8 7 6 6 5 5 6 6 5 5
3 2 3 2 2 1 1 1 1 1 1 2 2 2 2 2 2 1 1 1 1 0 0 1 1 2 3 3 5 8 7 7 7 7 7 7 6 6 6 6 6 6 5
2 3 3 3 2 2 1 1 1 1 1 2 3 2 2 2 2 1 0 0 1 1 1 0 1 2 2 3 4 8 7 8 8 7 7 7 7 7 6 6 6 6 6
2 3 3 3 2 2 1 1 1 1 1 1 2 1 2 2 2 2 0 0 1 1 1 1 0 1 2 3 5 7 6 8 8 7 7 7 7 7 6 6 6 6 5
1 2 3 3 3 2 1 1 1 0 0 1 1 1 2 2 2 1 1 1 1 1 1 1 0 1 1 1 4 4 5 8 9 9 9 8 8 7 7 6 6 6 6
2 2 2 2 2 2 2 2 2 1 1 1 2 1 1 2 2 2 1 1 1 0 1 1 0 0 0 0 2 4 5 7 7 10 10 10 9 9 8 8 7 7 7
2 3 3 3 3 3 2 2 2 2 1 2 1 1 1 1 1 2 2 1 1 1 1 1 1 1 1 1 2 3 4 5 6 9 12 12 11 11 10 10 9 9 8
3 2 2 2 3 2 2 2 2 2 2 1 1 1 1 1 1 1 2 2 2 2 1 1 2 1 1 2 1 3 3 2 5 7 12 13 13 13 12 11 10 10 9
3 3 3 3 3 3 2 3 2 2 2 2 2 2 2 1 0 2 2 2 3 2 2 1 2 2 1 1 1 2 2 2 3 4 5 9 12 14 13 12 11 11 10
4 3 3 3 3 3 3 3 4 4 3 3 3 2 2 1 1 1 2 2 2 2 2 2 2 2 1 1 2 2 2 2 3 3 2 4 6 7 9 10 11 11 11
3 3 3 3 4 4 2 2 3 3 3 3 3 2 2 3 2 2 2 3 3 3 2 2 2 3 2 2 2 3 2 2 3 2 2 3 4 4 5 8 11 13 13
3 3 3 2 2 2 2 2 3 4 4 4 3 3 4 3 2 2 4 4 4 4 4 4 3 4 4 3 3 4 4 4 4 3 2 4 3 4 5 8 13 14 14
3 3 2 3 2 2 3 3 4 4 4 4 4 4 3 3 3 2 3 2 3 3 4 3 4 5 4 3 4 5 5 4 4 3 2 3 3 3 3 5 11 15 15
3 3 2 3 2 2 3 3 4 4 4 4 4 3 3 3 1 1 2 3 3 3 4 3 4 4 4 4 3 2 3 3 4 3 2 2 3 2 3 3 7 13 14
3 3 3 2 2 2 4 4 3 3 3 3 2 2 2 2 1 1 2 3 3 3 3 4 4 4 4 4 5 4 3 3 3 3 1 1 2 2 2 2 3 6 8
Wind_Direction
114 102 87 107 144 153 157 181 209 181 191 211 215 185 214 185 133 127 137 156 166 171 176 182 185 189 197 201 201 204 206 207 207 208 209 208 210 212 215 219 219 221 223
110 108 105 121 212 175 170 204 221 202 197 204 193 178 198 180 130 141 146 155 162 168 177 186 188 191 197 198 199 202 206 210 212 212 213 212 213 216 219 219 219 222 222
115 130 151 181 193 198 195 202 232 230 218 212 179 168 169 157 139 146 158 161 161 169 177 184 190 193 197 201 203 206 207 210 215 218 217 217 219 220 220 221 220 223 225
127 149 165 170 187 198 209 188 207 266 266 231 173 168 155 169 164 169 163 166 170 171 178 185 186 188 192 200 202 202 202 205 204 206 210 214 216 215 217 221 221 222 225
145 159 155 183 183 198 212 197 146 204 269 244 191 169 166 180 188 185 173 165 165 169 172 177 186 191 196 203 203 204 203 205 206 208 209 211 214 218 217 217 217 219 221
134 166 178 215 192 168 100 44 43 338 317 302 279 155 173 183 184 186 187 172 161 168 175 172 176 189 202 208 207 206 205 205 206 207 208 211 217 221 220 218 219 222 226
143 151 317 107 251 134 172 195 89 314 279 214 295 218 205 192 187 180 179 174 155 161 159 165 173 178 184 204 209 208 210 208 204 207 210 215 221 224 218 216 220 221 225
163 173 198 221 287 110 77 15 343 290 274 188 248 270 239 165 220 178 156 161 161 154 158 173 177 166 171 177 195 202 204 207 208 209 212 216 221 223 218 218 219 220 224
160 254 150 214 286 168 126 190 232 256 286 295 275 293 308 63 338 206 150 125 132 143 157 167 159 157 166 163 170 190 199 204 206 210 214 216 215 217 215 214 214 216 217
179 192 151 179 277 37 77 265 120 271 281 296 300 286 243 143 202 216 342 108 131 139 154 169 127 140 148 144 151 169 184 192 201 210 216 216 214 212 207 205 210 213 217
175 175 159 180 186 145 68 355 20 351 331 311 302 294 279 247 224 195 229 283 78 120 140 136 126 124 135 141 147 161 180 192 195 199 201 209 211 210 205 204 210 212 214
170 179 166 170 178 197 131 251 304 307 318 313 308 306 297 294 271 210 211 219 196 222 158 144 139 127 141 151 169 165 176 188 195 196 194 198 201 201 203 206 208 209 209
176 175 175 165 182 203 206 191 238 295 286 293 294 303 309 313 313 292 220 252 271 226 113 127 123 117 149 155 159 158 168 179 185 191 192 196 201 200 200 206 208 210 207
170 163 170 167 184 210 225 223 237 245 281 282 289 308 308 312 313 315 246 213 287 320 19 329 111 133 136 153 154 159 165 177 182 183 191 198 202 200 201 207 209 208 206
189 163 173 171 179 191 223 236 247 271 304 283 291 300 298 308 312 321 7 227 237 278 298 253 184 183 150 159 157 169 170 178 183 186 193 198 203 205 203 204 205 203 204
186 172 179 178 177 184 212 214 254 265 315 299 292 323 311 307 315 337 345 310 307 216 254 284 277 174 154 158 162 178 185 185 190 193 199 202 205 207 206 206 209 208 208
181 177 181 183 178 184 198 199 237 225 241 278 285 304 313 329 339 334 344 333 336 2 236 294 339 320 1 88 160 194 199 188 191 201 206 207 210 212 211 213 216 217 217
193 177 180 193 202 199 194 213 242 233 235 262 275 288 294 309 335 339 341 330 323 302 188 246 260 244 257 224 206 223 215 208 200 208 206 207 210 212 213 216 219 221 221
190 184 185 206 222 213 209 223 235 246 236 242 246 255 271 287 327 338 322 323 316 314 280 234 252 249 255 243 233 251 235 215 228 215 206 209 210 211 211 214 218 222 221
192 189 197 215 227 213 222 233 232 242 243 254 267 259 257 256 288 289 287 308 307 306 290 253 250 256 250 256 238 249 258 244 247 238 211 207 208 212 212 212 217 221 221
200 191 205 220 230 225 227 228 234 229 227 235 244 255 254 128 45 304 282 296 294 286 283 275 267 281 279 300 273 267 268 264 255 243 238 216 196 203 207 212 217 217 214
198 203 215 224 234 243 214 199 230 244 243 243 242 242 226 196 208 240 261 271 256 251 264 278 277 282 280 286 286 279 281 281 271 230 226 241 205 206 199 197 205 207 208
202 210 222 231 235 228 191 205 244 247 243 236 234 241 255 247 200 234 250 250 257 255 238 247 268 278 277 271 268 274 270 270 266 261 255 252 225 218 206 208 201 202 205
205 211 213 225 227 229 212 223 244 243 247 241 235 233 234 246 239 256 272 266 260 266 254 238 243 259 267 262 255 256 262 264 263 257 233 248 242 234 226 196 198 200 205
209 213 201 205 208 214 203 221 239 253 247 248 238 229 218 219 178 262 261 268 275 274 274 263 253 250 245 253 260 271 272 271 277 268 243 241 253 254 236 216 205 206 208
206 207 203 200 206 186 181 199 219 263 263 262 244 224 160 149 153 290 275 278 279 284 292 284 270 262 249 246 237 228 252 273 282 275 261 256 264 272 267 218 193 196 208
Height
1531 1532 1533 1533 1533 1534 1534 1534 1534 1535 1535 1536 1536 1537 1537 1538 1539 1539 1540 1540 1541 1542 1543 1544 1545 1545 1546 1547 1548 1550 1551 1552 1553 1554 1555 1556 1557 1559 1560 1561 1562 1563 1565
1531 1532 1533 1533 1533 1534 1534 1534 1534 1534 1535 1535 1535 1536 1536 1537 1538 1538 1539 1539 1540 1541 1541 1542 1543 1544 1545 1546 1547 1548 1549 1550 1551 1552 1553 1554 1555 1557 1558 1559 1560 1561 1562
1532 1532 1532 1533 1533 1534 1534 1534 1534 1534 1534 1534 1534 1534 1535 1536 1536 1537 1538 1539 1539 1540 1540 1540 1541 1542 1543 1544 1545 1546 1547 1548 1549 1550 1551 1552 1553 1554 1555 1556 1557 1558 1559
1531 1532 1532 1533 1533 1533 1534 1534 1534 1534 1533 1532 1532 1533 1534 1535 1536 1537 1537 1537 1538 1538 1539 1540 1540 1541 1542 1542 1543 1544 1545 1546 1547 1548 1549 1550 1551 1552 1553 1553 1554 1555 1557
1531 1532 1532 1533 1533 1533 1534 1534 1533 1533 1533 1532 1532 1533 1533 1534 1535 1536 1536 1537 1537 1537 1538 1538 1539 1539 1540 1541 1541 1542 1543 1544 1545 1546 1547 1547 1548 1549 1550 1551 1551 1553 1553
1531 1532 1532 1533 1533 1533 1533 1533 1533 1533 1533 1532 1533 1533 1533 1534 1535 1536 1536 1536 1536 1536 1537 1537 1538 1538 1539 1539 1540 1540 1541 1542 1542 1543 1544 1545 1545 1546 1546 1547 1548 1549 1550
1531 1531 1532 1532 1532 1533 1533 1533 1533 1533 1533 1533 1533 1533 1534 1534 1534 1535 1535 1536 1536 1536 1536 1536 1536 1537 1537 1538 1538 1539 1539 1540 1540 1541 1541 1542 1542 1543 1543 1544 1545 1546 1547
1530 1531 1531 1531 1532 1532 1532 1532 1532 1532 1533 1533 1534 1533 1534 1535 1534 1535 1535 1535 1535 1535 1535 1535 1536 1536 1536 1536 1536 1537 1537 1538 1538 1538 1539 1539 1540 1540 1540 1541 1542 1543 1544
1530 1530 1530 1531 1531 1531 1531 1531 1531 1532 1532 1533 1533 1534 1534 1534 1534 1535 1535 1535 1535 1535 1535 1535 1535 1535 1535 1535 1535 1535 1535 1536 1536 1536 1536 1537 1537 1537 1538 1538 1539 1540 1540
1529 1529 1530 1530 1530 1530 1531 1531 1531 1531 1532 1532 1533 1533 1533 1533 1534 1534 1535 1535 1534 1534 1534 1534 1534 1534 1534 1533 1533 1533 1533 1533 1534 1534 1534 1534 1534 1535 1535 1536 1536 1537 1537
1528 1528 1529 1529 1529 1530 1530 1530 1530 1530 1530 1531 1531 1532 1532 1533 1533 1533 1533 1533 1534 1534 1533 1533 1532 1532 1532 1531 1531 1531 1531 1531 1531 1532 1531 1532 1532 1532 1533 1533 1533 1534 1534
1527 1527 1528 1528 1528 1528 1529 1529 1529 1529 1529 1530 1530 1531 1531 1531 1531 1532 1531 1531 1532 1532 1532 1532 1531 1530 1530 1529 1529 1529 1529 1529 1529 1529 1529 1529 1529 1530 1530 1530 1531 1531 1532
1526 1526 1527 1527 1527 1527 1528 1528 1528 1528 1528 1528 1529 1529 1529 1530 1530 1530 1530 1530 1530 1530 1530 1530 1530 1529 1528 1528 1527 1527 1527 1527 1527 1527 1527 1527 1527 1527 1527 1528 1528 1529 1529
1525 1525 1525 1526 1526 1526 1526 1527 1527 1527 1527 1527 1527 1527 1527 1528 1528 1528 1528 1528 1528 1528 1528 1529 1528 1528 1527 1526 1525 1525 1524 1525 1524 1524 1524 1525 1525 1525 1525 1526 1526 1526 1527
1523 1524 1524 1524 1524 1525 1525 1525 1525 1525 1526 1525 1525 1525 1525 1525 1526 1526 1526 1526 1527 1526 1526 1526 1526 1526 1525 1524 1523 1523 1523 1523 1523 1522 1522 1522 1522 1522 1523 1523 1523 1524 1525
1521 1522 1522 1523 1523 1523 1523 1524 1523 1524 1524 1524 1524 1524 1523 1524 1524 1524 1524 1524 1524 1524 1524 1524 1524 1524 1523 1522 1522 1521 1521 1521 1521 1521 1521 1520 1520 1520 1520 1521 1521 1522 1523
1519 1519 1520 1521 1521 1521 1521 1522 1522 1522 1522 1522 1522 1522 1522 1522 1522 1522 1522 1522 1522 1522 1521 1521 1521 1521 1521 1520 1520 1519 1519 1519 1519 1519 1518 1518 1518 1518 1518 1519 1519 1520 1521
1516 1517 1518 1518 1519 1519 1519 1520 1520 1520 1520 1520 1520 1520 1520 1520 1520 1520 1520 1520 1520 1520 1520 1519 1518 1519 1518 1518 1518 1517 1517 1517 1517 1516 1516 1516 1516 1516 1516 1517 1517 1518 1518
1514 1515 1516 1516 1517 1517 1517 1518 1518 1518 1518 1517 1517 1517 1517 1518 1518 1518 1517 1517 1517 1518 1517 1517 1516 1516 1516 1516 1515 1515 1515 1515 1514 1514 1514 1514 1514 1514 1514 1515 1515 1515 1515
1512 1513 1513 1514 1515 1515 1515 1515 1516 1516 1516 1516 1516 1515 1515 1515 1515 1515 1515 1515 1515 1515 1515 1515 1514 1514 1513 1513 1513 1512 1512 1512 1512 1512 1511 1511 1512 1512 1512 1512 1512 1512 1512
1510 1511 1511 1511 1512 1512 1512 1513 1513 1513 1513 1513 1513 1513 1513 1513 1512 1512 1512 1511 1511 1512 1512 1512 1511 1511 1510 1510 1510 1510 1509 1509 1509 1509 1509 1509 1509 1509 1509 1509 1509 1509 1510
1508 1508 1508 1509 1509 1510 1510 1510 1510 1511 1511 1511 1511 1511 1511 1510 1510 1510 1509 1509 1508 1509 1509 1509 1508 1508 1508 1508 1507 1507 1507 1507 1506 1506 1506 1506 1506 1506 1506 1506 1506 1507 1507
1505 1505 1505 1506 1506 1507 1507 1507 1507 1507 1508 1508 1508 1508 1508 1508 1507 1507 1507 1506 1506 1506 1506 1506 1505 1505 1505 1505 1505 1504 1504 1504 1503 1503 1503 1502 1503 1503 1503 1503 1503 1504 1504
1502 1502 1502 1503 1503 1504 1504 1504 1504 1504 1505 1505 1505 1505 1505 1505 1504 1504 1504 1503 1502 1502 1502 1502 1502 1502 1502 1502 1502 1501 1501 1500 1500 1500 1500 1499 1499 1499 1500 1500 1500 1501 1501
1499 1499 1499 1500 1500 1501 1501 1501 1502 1501 1502 1502 1502 1502 1502 1502 1502 1502 1501 1500 1499 1499 1499 1499 1499 1499 1499 1499 1499 1498 1498 1498 1497 1497 1497 1497 1496 1496 1497 1497 1497 1498 1498
1496 1496 1496 1497 1497 1497 1498 1498 1499 1499 1499 1500 1500 1500 1500 1500 1499 1499 1498 1497 1496 1496 1496 1495 1495 1495 1495 1495 1495 1495 1495 1495 1494 1494 1494 1494 1493 1494 1494 1494 1494 1495 1495